Weather in Bolshoy Truev

Russia / Penza Oblast     53°05′18″N   46°53′18″E
temp.,
°C
wind,
m/s
gust,
m/s
humid.,
%
clouds,
%
prec.,
mm/h
press.,
hPa
HPBL,
m
19 september, sun
sun1900:00+2n117689 0.0 102511
03:00+1ne1180100 0.0 102510
06:00+1ene117995 0.0 102624
09:00+7e235458 0.0 1026595
12:00+10ese2240100 0.0 10251168
15:00+11se2238100 0.0 10241231
18:00+8e2450100 0.0 102490
21:00+7ese265186 0.0 1024166
20 september, mon
mon2000:00+6e375579 0.0 1024200
03:00+5e3957100 0.0 1024310
06:00+5e3955100 0.0 1024350
09:00+8ese5946100 0.0 1024601
12:00+8ese4858100 0.4 1024887
15:00+7e41079100 2.0 1023677
18:00+6e51285100 2.3 1022656
21:00+6e51282100 3.3 1023652
21 september, tue
tue2100:00+6e51383100 0.7 1022580
03:00+6e51385100 0.9 1021596
06:00+5e51392100 1.4 1020489
09:00+6e51395100 3.1 1020534
12:00+6e51290100 0.9 1020541
15:00+9e597413 0.9 1018601
18:00+7e41082100 0.0 1018328
21:00+5e41187100 0.0 1018291
22 september, wed
wed2200:00+6e388299 0.1 1017233
03:00+6e3987100 0.6 1016217
06:00+7e3994100 1.5 1016241
09:00+7e2694100 2.5 1016201
12:00+9ene2798100 1.9 1016252
15:00+12se31099100 3.8 1015500
18:00+11ese4119759 0.8 1017373
21:00+10ese3109294 0.9 1017314
23 september, thu
thu2300:00+9ese3995100 0.6 1018269
03:00+9ese3993100 1.1 1018254
06:00+8ese3795100 4.8 1018260
09:00+11sse61295100 7.8 1019776
12:00+10sse61394100 1.1 1020789
15:00+10se51296100 2.0 1020624
18:00+8se51195100 0.3 1021571
21:00+8se51095100 0.3 1021534